DELTA 1 DEB, 29189

Orbit data source: Space-Track

DELTA 1 DEB, 29189 is space debris in LEO originally from a launch on Thu, 11 Jan 1968 UTC launched from the Air Force Western Test Range (AFWTR). Debris objects in space refer to the collection of defunct objects orbiting the Earth. Examples of debris include non-operational satellites, rocket bodies, and fragments generated from explosions, collisions, or faulty payload assembly.

Loading next visibility...
Identifier
29189, 1968-002N
Orbit
LEO
Last TLE update
1 week ago
Origin
Manufacturer
Unknown
Mission
Spacecraft
Bus & Motor
Unknown
Mass
Unknown
Launch date (UTC)
1968-01-11 (57 years ago)
Launch vehicle
Unknown
Launch site
Air Force Western Test Range (AFWTR)
Object type
Payload
Rocket body
Debris
Shape & HBR
Unknown
Radar Cross Section
Small (<0.1 m²)

Expand to show TLE details & history

TLE from 1 week ago
0 DELTA 1 DEB
1 29189U 68002N   25179.77871707  .00000662  00000-0  17238-2 0  9990
2 29189 105.8351  29.1907 0243306 116.8712 309.3792 13.14524284483086
Epoch: 2025-06-28T18:41Z
TLE epoch observation values (Epoch: 2025-06-28T18:41:21.154Z)
Latitude
59.993°
Longitude
162.49129°
Altitude
1,101.204 km
Speed
7.362 km/s
True Right ascension
23h 59m 46s
True Declination
59° 51' 02"
Sunlit
Object was in daylight at epoch
Visualization orbit readout
Latitude
31.81615°
Longitude
-167.74162°
Altitude
1,146.75 km
Speed
7.313 km/s
Apparent Right ascension
00h 20m 38s
Apparent Declination
0° 42' 37"
Sunlit
Object is in daylight
Visualization observer readout
Local Sidereal Time
10:09:10
Azimuth
314.292° NW
Elevation
-40.701°
Doppler factor
1
Orbital elements
Apogee altitude
1,387.921 km
Perigee altitude
1,018.991 km
Semi-major axis
7,581.593 km
Eccentricity
0.02433
Inclination
105.8351°
RAAN
29.1907°
Arg. of periapsis
116.8712°
True anomaly
Unknown
Mean anomaly
309.3792°
Eccentric anomaly
Unknown
Mean motion
3.28778 °/min
Orbital period
109.5 mins
BSTAR
0.0017238
Loading maneuver chart data...
Loading SW <> Apogee altitude chart data...
Loading historical data...
Loading historical data...
Loading historical data...
Loading historical data...
Loading historical data...
Loading historical data...
Loading historical data...

DELTA 1 DEB Visibility forecast

Observer location: undefined°, undefined°

Span
Click to sort rows by Start time (UTC) header in descending order
Start Az.
Max El. time (UTC)
Max El. Az.
Max El.
End time (UTC)
End Az.
9 mins2025-07-06 02:20:01.299Z54.468° ENE2025-07-06 02:24:01.299Z100.016° ESE23.415°2025-07-06 02:29:01.299Z154.8° SSE
10 mins2025-07-06 04:07:01.299Z8.984° NNE2025-07-06 04:12:01.299Z286.317° WNW38.356°2025-07-06 04:17:01.299Z226.63° WSW
10 mins2025-07-06 12:49:01.299Z116.693° SE2025-07-06 12:54:01.299Z51.988° ENE31.789°2025-07-06 12:59:01.299Z354.87° N
10 mins2025-07-06 14:36:01.299Z192.456° SSW2025-07-06 14:41:01.299Z257.539° W32.577°2025-07-06 14:46:01.299Z317.732° NNW
|